Weather History for Flora, IL

Change the Weather History Date:

Thursday, January 17, 2013

  Actual Average (KEVV) Record (KEVV)
Temperature  
Mean Temperature 32 °F 32 °F  
Max Temperature 39 °F 41 °F 69 °F (1952)
Min Temperature 25 °F 24 °F -21 °F (1977)
Degree Days  
Heating Degree Days 33 33  
Month to date heating degree days 556  
Since 1 July heating degree days 2328  
Cooling Degree Days 0 0  
Month to date cooling degree days 0  
Year to date cooling degree days 0  
Moisture  
Dew Point 27 °F    
Average Humidity 78    
Maximum Humidity 90    
Minimum Humidity 65    
Precipitation  
Precipitation 0.00 in 0.10 in 2.46 in (1969)
Month to date precipitation 1.66  
Year to date precipitation 1.66  
Snow  
Snow 0.00 in 0.10 in 2.70 in (1994)
Month to date snowfall 1.8  
Since 1 July snowfall 5.3  
Snow Depth -    
Sea Level Pressure  
Sea Level Pressure 30.29 in    
Wind  
Wind Speed 6 mph (NNW)    
Max Wind Speed 17 mph    
Max Gust Speed 23 mph    
Visibility 10 miles    
Events      
T = Trace of Precipitation, MM = Missing Value Source: NWS Daily Summary

Daily Weather History Graph

Daily Weather History Graph

Search for Another Location

Airport:

Trip Planner

Search our weather history database for the weather conditions in past years. The results will help you decide how hot, cold, wet, or windy it might be!

Date:

Astronomy

Jan. 17, 2013 Rise Set
Actual Time 7:09 AM CST 4:59 PM CST
Civil Twilight 6:40 AM CST 5:27 PM CST
Nautical Twilight 6:07 AM CST 6:00 PM CST
Astronomical Twilight 5:36 AM CST 6:32 PM CST
Moon 10:21 AM CST (1/17) 11:44 PM CST (1/17)
Length of Visible Light 10h 47m
Length of Day
9h 49m
Waxing Crescent, 38% of the Moon is Illuminated
Jan 17
Waxing Crescent
Jan 18
First Quarter
Jan 26
Full
Feb 3
Last Quarter
Feb 10
New

Hourly Weather History & Observations

Time (CST) Temp. Windchill Dew Point Humidity Pressure Visibility Wind Dir Wind Speed Gust Speed Precip Events Conditions
12:15 AM 29.5 °F 24.5 °F 24.6 °F 82% 30.14 in 10.0 mi SSW 4.6 mph - N/A   Clear
12:35 AM 29.3 °F - 24.8 °F 83% 30.14 in 10.0 mi Calm Calm - N/A   Clear
12:55 AM 30.0 °F 26.5 °F 24.4 °F 80% 30.14 in 10.0 mi SW 3.5 mph - N/A   Clear
1:15 AM 30.0 °F 25.2 °F 24.1 °F 79% 30.14 in 10.0 mi West 4.6 mph - N/A   Clear
1:35 AM 29.1 °F 25.4 °F 23.9 °F 81% 30.15 in 10.0 mi SW 3.5 mph - N/A   Clear
1:55 AM 28.8 °F 25.0 °F 23.5 °F 81% 30.15 in 10.0 mi SSW 3.5 mph - N/A   Clear
2:15 AM 28.4 °F - 24.4 °F 85% 30.15 in 10.0 mi Calm Calm - N/A   Clear
2:35 AM 27.7 °F 23.8 °F 24.6 °F 88% 30.15 in 10.0 mi South 3.5 mph - N/A   Mostly Cloudy
2:55 AM 30.6 °F - 25.0 °F 80% 30.16 in 10.0 mi Calm Calm - N/A   Mostly Cloudy
3:15 AM 29.3 °F - 25.9 °F 87% 30.15 in 10.0 mi Calm Calm - N/A   Overcast
3:35 AM 30.2 °F - 26.8 °F 87% 30.16 in 10.0 mi Calm Calm - N/A   Overcast
3:55 AM 30.2 °F - 27.5 °F 90% 30.16 in 10.0 mi Calm Calm - N/A   Overcast
4:15 AM 30.9 °F - 27.7 °F 88% 30.16 in 10.0 mi Calm Calm - N/A   Overcast
4:35 AM 31.5 °F 26.8 °F 28.2 °F 88% 30.17 in 10.0 mi NW 4.6 mph - N/A   Overcast
4:55 AM 33.8 °F 27.7 °F 27.3 °F 77% 30.18 in 10.0 mi NW 6.9 mph - N/A   Overcast
5:15 AM 34.3 °F 29.2 °F 27.3 °F 76% 30.18 in 10.0 mi NW 5.8 mph - N/A   Overcast
5:35 AM 34.0 °F 27.2 °F 27.3 °F 77% 30.19 in 10.0 mi NW 8.1 mph - N/A   Overcast
5:55 AM 33.8 °F 27.7 °F 27.5 °F 78% 30.19 in 10.0 mi NNW 6.9 mph - N/A   Overcast
6:15 AM 33.4 °F 28.1 °F 27.7 °F 79% 30.19 in 10.0 mi NNW 5.8 mph - N/A   Overcast
6:35 AM 33.4 °F 28.1 °F 28.2 °F 81% 30.19 in 10.0 mi NNW 5.8 mph - N/A   Overcast
6:55 AM 33.3 °F 27.9 °F 28.2 °F 82% 30.20 in 10.0 mi NNW 5.8 mph - N/A   Overcast
7:15 AM 33.3 °F 27.1 °F 27.5 °F 79% 30.21 in 10.0 mi NNW 6.9 mph - N/A   Scattered Clouds
7:35 AM 33.6 °F 26.8 °F 27.5 °F 78% 30.22 in 10.0 mi NNW 8.1 mph - N/A   Scattered Clouds
7:55 AM 33.4 °F 26.6 °F 27.9 °F 80% 30.24 in 10.0 mi NNW 8.1 mph - N/A   Scattered Clouds
8:15 AM 34.3 °F 28.4 °F 28.8 °F 80% 30.25 in 10.0 mi North 6.9 mph - N/A   Mostly Cloudy
8:35 AM 34.9 °F 28.3 °F 29.3 °F 80% 30.27 in 10.0 mi North 8.1 mph - N/A   Mostly Cloudy
8:55 AM 35.4 °F 27.8 °F 30.0 °F 81% 30.27 in 10.0 mi North 10.4 mph - N/A   Scattered Clouds
9:15 AM 35.8 °F 28.8 °F 30.6 °F 81% 30.28 in 10.0 mi North 9.2 mph - N/A   Clear
9:35 AM 36.5 °F 28.7 °F 31.1 °F 81% 30.29 in 10.0 mi North 11.5 mph - N/A   Mostly Cloudy
9:55 AM 35.6 °F 28.0 °F 30.4 °F 81% 30.30 in 10.0 mi North 10.4 mph - N/A   Mostly Cloudy
10:15 AM 37.8 °F 31.3 °F 32.0 °F 80% 30.30 in 10.0 mi North 9.2 mph - N/A   Scattered Clouds
10:35 AM 38.8 °F 31.2 °F 32.0 °F 76% 30.29 in 10.0 mi North 12.7 mph - N/A   Clear
10:55 AM 37.9 °F 29.6 °F 32.0 °F 79% 30.29 in 10.0 mi North 13.8 mph - N/A   Unknown
11:15 AM 37.4 °F 31.4 °F 32.0 °F 81% 30.29 in 10.0 mi North 8.1 mph 16.1 mph N/A   Mostly Cloudy
11:35 AM 39.2 °F 31.2 °F 32.2 °F 76% 30.27 in 10.0 mi North 13.8 mph - N/A   Scattered Clouds
11:55 AM 39.2 °F 30.5 °F 31.8 °F 75% 30.27 in 10.0 mi North 16.1 mph - N/A   Unknown
12:15 PM 39.2 °F 30.8 °F 32.0 °F 75% 30.28 in 10.0 mi NNW 15.0 mph - N/A   Unknown
12:35 PM 39.4 °F 31.1 °F 30.9 °F 72% 30.27 in 10.0 mi North 15.0 mph 23.0 mph N/A   Unknown
12:55 PM 39.2 °F 31.6 °F 31.8 °F 75% 30.28 in 10.0 mi North 12.7 mph - N/A   Unknown
1:15 PM 38.1 °F 29.8 °F 30.6 °F 74% 30.28 in 10.0 mi NNW 13.8 mph - N/A   Unknown
1:35 PM 39.0 °F 30.6 °F 31.1 °F 73% 30.28 in 10.0 mi NNW 15.0 mph 18.4 mph N/A   Mostly Cloudy
1:55 PM 38.7 °F 30.1 °F 29.3 °F 69% 30.28 in 10.0 mi NNW 15.0 mph 20.7 mph N/A   Scattered Clouds
2:15 PM 38.8 °F 30.8 °F 29.5 °F 69% 30.28 in 10.0 mi NNW 13.8 mph 21.9 mph N/A   Clear
2:35 PM 39.0 °F 31.0 °F 28.8 °F 67% 30.29 in 10.0 mi NNW 13.8 mph 20.7 mph N/A   Clear
2:55 PM 38.8 °F 29.7 °F 28.4 °F 66% 30.30 in 10.0 mi North 17.3 mph - N/A   Clear
3:15 PM 38.8 °F 30.8 °F 29.1 °F 68% 30.30 in 10.0 mi NNW 13.8 mph 18.4 mph N/A   Clear
3:35 PM 39.2 °F 32.5 °F 28.4 °F 65% 30.31 in 10.0 mi NNW 10.4 mph 17.3 mph N/A   Clear
3:55 PM 37.9 °F 29.2 °F 27.9 °F 67% 30.32 in 10.0 mi NNW 15.0 mph 19.6 mph N/A   Clear
4:35 PM 36.0 °F 28.0 °F 25.7 °F 66% 30.35 in 10.0 mi NNW 11.5 mph 17.3 mph N/A   Clear
4:55 PM 34.9 °F 27.1 °F 26.1 °F 70% 30.35 in 10.0 mi NNW 10.4 mph - N/A   Clear
5:15 PM 33.8 °F 28.6 °F 26.1 °F 73% 30.37 in 10.0 mi NW 5.8 mph - N/A   Clear
5:35 PM 33.8 °F 27.0 °F 25.9 °F 73% 30.38 in 10.0 mi NNW 8.1 mph - N/A   Clear
5:55 PM 33.4 °F 26.6 °F 25.5 °F 73% 30.39 in 10.0 mi NNW 8.1 mph - N/A   Clear
6:15 PM 32.4 °F 26.9 °F 25.7 °F 76% 30.40 in 10.0 mi NW 5.8 mph - N/A   Clear
6:35 PM 32.0 °F 24.2 °F 25.7 °F 78% 30.41 in 10.0 mi NNW 9.2 mph - N/A   Clear
6:55 PM 32.0 °F 24.8 °F 24.8 °F 75% 30.43 in 10.0 mi NW 8.1 mph - N/A   Clear
7:15 PM 31.6 °F 26.0 °F 24.8 °F 76% 30.44 in 10.0 mi NW 5.8 mph - N/A   Clear
7:35 PM 31.1 °F 24.5 °F 25.0 °F 78% 30.45 in 10.0 mi NNW 6.9 mph - N/A   Clear
7:55 PM 30.6 °F 24.7 °F 24.3 °F 77% 30.45 in 10.0 mi NNW 5.8 mph - N/A   Clear
8:15 PM 30.2 °F 23.4 °F 23.9 °F 77% 30.46 in 10.0 mi NNW 6.9 mph - N/A   Clear
8:35 PM 29.8 °F 24.9 °F 23.4 °F 77% 30.46 in 10.0 mi NNW 4.6 mph - N/A   Clear
8:55 PM 28.9 °F 25.2 °F 23.0 °F 78% 30.47 in 10.0 mi NNW 3.5 mph - N/A   Clear
9:15 PM 28.9 °F - 23.0 °F 78% 30.47 in 10.0 mi Calm Calm - N/A   Clear
9:35 PM 28.0 °F 24.2 °F 22.8 °F 81% 30.47 in 10.0 mi NW 3.5 mph - N/A   Clear
9:55 PM 27.1 °F 21.8 °F 22.1 °F 81% 30.48 in 10.0 mi West 4.6 mph - N/A   Clear
10:55 PM 26.6 °F 20.0 °F 21.9 °F 82% 30.49 in 10.0 mi West 5.8 mph - N/A   Clear
11:15 PM 26.8 °F - 22.1 °F 83% 30.49 in 10.0 mi Calm Calm - N/A   Clear
11:35 PM 25.9 °F - 21.6 °F 84% 30.49 in 10.0 mi Calm Calm - N/A   Clear
11:55 PM 25.3 °F - 22.1 °F 87% 30.49 in 10.0 mi Calm Calm - N/A   Clear